GSAT0210 (GALILEO 13) (41550 NORAD) Tracking and Keplerian Element Data

This shows tracking and keplerian element data for the satellite.

Feedback or suggestion? Click here.




ElementValue
Catalog41550
NameGSAT0210 (GALILEO 13)
Epoch Orbit1544
Epoch Day321.4113777
Epoch Year2018
RAAN297.7718
Inclination56.758
Eccentricity0.0004343
Argument of Perigee261.8216
Mean Anonmoly98.1226
Mean Motion1.70474471
Decay Rate-2.1E-07
L11 41550U 16030B 18321.41137770 -.00000021 00000-0 00000+0 0 9993
L22 41550 56.7580 297.7718 0004343 261.8216 98.1226 1.70474471 15446

Live tracking and technical data element details for GSAT0210 (GALILEO 13) (NORAD 41550). GSAT0210 (GALILEO 13) can be tracked NOW for your location showing map with azimuth and elevation plus other details from your city location.

Track the satellite on the map from your city or location and see movement details for azimuth, elevation, latitude, longitude, range, height, and movement on the map or in text.







IsCatalogInMostPopularTable: catalog: 41550, numindb: 101
Update: records affected: 1



GetName: 41550 GSAT0210 (GALILEO 13)

Hit Count: updated at: Tue, 20 Nov 2018 00:53:59 GMT